Regional Weather Roundup
Issued by NWS

Home | Current Version | Previous Version | Graphics & Text | Print | Product List | Glossary On
Versions: 1 2 3 4 5 6 7 8 9 10 11 12 13 14 15 16 17 18 19 20 21 22 23 24 25 26 27 28 29 30 31 32 33 34 35 36 37 38 39 40 41 42 43 44 45 46 47 48 49 50
659
ASUS43 KTOP 301559
RWRKS

WEATHER ROUNDUP FOR KANSAS
NATIONAL WEATHER SERVICE GOODLAND KS
1100 AM CDT THU MAR 30 2017

NOTE:  "FAIR" INDICATES FEW OR NO CLOUDS BELOW 12,000 FEET WITH NO
SIGNIFICANT WEATHER AND/OR OBSTRUCTIONS TO VISIBILITY.

KSZ001>006-013>018-027>032-041>047-301700-
NORTHWEST KANSAS

CITY           SKY/WX    TMP DP  RH WIND       PRES   REMARKS
GOODLAND       CLOUDY    39  39 100 N8        29.81S
HAYS             N/A     41  36  82 N20G29    29.79S
HILL CITY      CLOUDY    40  37  89 N14       29.83S WCI  32
RUSSELL        CLOUDY    41  36  82 NW20      29.77R
$$

KSZ061>065-074>080-084>089-301700-
SOUTHWEST KANSAS

CITY           SKY/WX    TMP DP  RH WIND       PRES   REMARKS
DODGE CITY     CLOUDY    41  36  82 N16G25    29.80F
ELKHART          N/A     49  38  66 N5          N/A
GARDEN CITY    CLOUDY    43  38  82 N12       29.82S
GREAT BEND     CLOUDY    41  37  86 NW22G29   29.77S
LIBERAL        MOSUNNY   46  39  76 NW12      29.84F
$$

KSZ066>073-081>083-090>101-301700-
SOUTHEAST KANSAS

CITY           SKY/WX    TMP DP  RH WIND       PRES   REMARKS
CHANUTE        LGT RAIN  50  48  93 NW12      29.57R
COFFEYVILLE    LGT RAIN  46  44  93 SW14      29.64R FOG
MEDICINE LODGE   N/A     44  37  76 NW17G25   29.77R
NEWTON         LGT RAIN  41  40  96 NW21G29   29.69R FOG
PARSONS        LGT RAIN  47  45  93 W14G23    29.61S FOG
WICHITA INTL   CLOUDY    43  40  89 NW20G30   29.71R
WICHITA JABRA  CLOUDY    42  41  96 NW20G25   29.69R
WICHITA MCCONL CLOUDY    43  39  87 NW21G26   29.69S
WINFIELD       CLOUDY    44  41  89 NW17      29.72R
$$

KSZ007>012-019>026-033>040-048>060-102>105-301700-
NORTHEAST KANSAS

CITY           SKY/WX    TMP DP  RH WIND       PRES   REMARKS
CONCORDIA      CLOUDY    41  39  93 N17       29.72R
EMPORIA        CLOUDY    46  45  96 N18G24    29.61R
LAWRENCE       CLOUDY    50  48  93 N5        29.58S
MANHATTAN      CLOUDY    44  41  89 N8        29.66R
OLATHE IND     CLOUDY    49  46  90 CALM      29.57S FOG
OLATHE EXE     LGT RAIN  47  47 100 S3        29.57S FOG
SALINA         LGT RAIN  43  40  89 N16       29.72R FOG
TOPEKA BILLARD CLOUDY    48  47  96 N21       29.60R
TOPEKA FORBES  CLOUDY    48  46  93 N12G21    29.59R FOG
$$




USA.gov is the U.S. government's official web portal to all federal, state and local government web resources and services.